Location: Aiyegun
(8.4333°N, 4.4333°E)
Time: 05:49:55
(UTC+00:00)

Daily predictions for brighter satellites

Satellite Brightness Start Highest point End
(mag) Time Altitude Azimuth Time Altitude Azimuth Time Altitude Azimuth
Ariane H10-3 4.3 03:09:54 66° SW 03:11:12 71° S 10:49:35 10° E
Cosmos 1934 Rocket 4.3 03:14:48 10° N 03:20:46 61° E 03:26:49 10° SSE
Cosmos 2227 Rocket 4.4 03:27:00 14° SSE 03:27:00 14° SSE 03:27:41 10° SSE
Cosmos 1238 Rocket 4.3 03:17:17 10° N 03:23:12 52° E 03:28:16 10° SSE
Meteor 1-27 Rocket 4.3 03:30:33 10° S 03:36:18 59° E 03:42:07 10° NNE
Milstar 3 Cent rocket 4.1 03:34:17 49° WSW 03:37:43 62° SSW 03:59:43 10° SE
ADEOS 4.0 03:33:40 10° NNE 03:38:47 58° ESE 03:41:58 23° S
Cosmos 1535 Rocket 4.4 03:38:10 10° N 03:44:33 82° W 03:50:54 10° S
Cosmos 841 Rocket 3.9 03:43:08 32° S 03:45:25 61° ESE 03:50:32 10° NNE
Ariane H10+ 3.9 03:50:21 31° S 03:50:21 31° S 03:54:04 10° ESE
Cosmos 1727 Rocket 3.9 03:51:18 24° SSW 03:55:17 67° W 04:01:35 10° N
Cosmos 1570 Rocket 4.0 03:53:40 27° S 03:56:39 82° ESE 04:01:56 10° NNE
ALOS 2.7 03:53:23 10° NNE 03:57:59 61° ESE 04:02:34 10° S
IRIDIUM 106 4.4 03:54:00 10° N 03:59:11 77° E 04:04:24 10° S
Cosmos 2360 Rocket 2.1 03:56:31 20° SSW 04:00:29 86° ESE 04:06:09 10° NNE
Cosmos 1869 Rocket 4.2 03:58:26 10° N 04:02:39 55° E 04:06:52 10° SSE
H-2A R/B 1.8 03:58:37 10° S 04:02:49 83° W 04:07:07 10° NNW
Hubble Space Telescope 1.8 04:03:06 34° S 04:03:51 38° SSE 04:07:41 10° E
ERS-2 3.2 04:00:37 10° SSE 04:04:05 44° ENE 04:07:34 10° N
Ariane 44LP R/B 4.1 04:04:49 41° SSW 04:05:15 43° S 04:10:30 10° E
Cosmos 1484 Rocket 2.7 04:02:30 10° NNE 04:06:30 86° ESE 04:08:50 24° S
Delta 2 Rocket 4.2 04:10:46 27° S 04:11:32 30° SE 04:14:32 10° ENE
Cosmos 2082 3.8 04:09:03 17° NNW 04:13:22 52° WSW 04:18:53 10° S
Cosmos 2322 Rocket 3.2 04:16:50 26° NW 04:16:50 26° NW 04:20:34 10° NNW
Meteor 1-31 Rocket 2.6 04:13:21 10° N 04:17:11 82° WNW 04:21:04 10° SSW
SJ 16-02 3.2 04:14:11 10° NNE 04:18:07 32° ENE 04:22:02 10° SE
Cosmos 2237 4.4 04:17:22 23° SW 04:20:42 49° WNW 04:26:12 10° N
SL-16 R/B 3.9 04:25:34 15° NW 04:25:34 15° NW 04:27:09 10° NNW
Maqsat-H 2.9 04:21:52 21° SW 04:23:35 28° S 04:26:42 10° ESE
OAO 3 Rocket 3.2 04:21:08 29° SW 04:23:37 86° SE 04:28:34 10° NE
BLOCK DM-SL 4.1 04:23:54 22° WSW 04:28:24 59° S 04:34:42 10° E
Cosmos 540 Rocket 3.9 04:26:23 21° SW 04:29:15 38° WNW 04:34:02 10° N
Meteor PRIRODA 4.3 04:25:49 10° NNE 04:29:21 55° E 04:32:53 10° S
Landsat 5 4.3 04:26:19 10° SSW 04:30:14 31° W 04:34:13 10° NW
Cosmos 44 Rocket 4.4 04:31:36 23° WNW 04:31:36 23° WNW 04:35:12 10° NNW
METEOR-M 4.1 04:27:01 10° N 04:32:16 62° WNW 04:37:32 10° SSW
GPS 2-17 Rocket1 4.5 04:33:51 19° SW 04:35:25 23° SSW 04:39:03 10° SSE
FENGYUN 3A 3.9 04:30:29 10° N 04:35:35 45° WNW 04:40:43 10° SSW
CZ-4B R/B 1.3 04:35:16 10° SSE 04:38:17 75° E 04:41:20 10° N
SJ-12 3.8 04:35:25 10° N 04:39:32 73° W 04:43:39 10° SSW
Cosmos 2263 Rocket 3.2 04:34:09 10° N 04:39:36 50° ENE 04:45:05 10° SSE
Shenzhou-11 Module 0.8 04:45:21 27° NW 04:46:18 78° SW 04:48:23 10° SE
Cosmos 1500 4.4 04:43:33 10° NW 04:46:26 21° W 04:49:18 10° SW
Cosmos 1703 Rocket 4.5 04:43:46 10° S 04:47:58 51° E 04:52:09 10° NNE
COSMOS 2428 3.3 04:43:37 10° S 04:49:13 63° ESE 04:54:50 10° NNE
Meteor 1-18 Rocket 4.4 04:43:40 10° S 04:49:16 76° E 04:54:47 10° N
ADEOS Rocket 3.4 04:42:20 10° S 04:49:50 66° WSW 04:56:44 10° NNW
Cosmos 2227 4.5 04:45:10 10° N 04:50:45 73° ENE 04:56:20 10° SSE
Cosmos 2242 Rocket 3.6 04:46:49 10° S 04:51:14 87° E 04:55:37 10° N
USA 234 4.0 04:45:05 10° SE 04:51:26 55° NE 04:57:45 10° NNW
Cosmos 2219 Rocket 2.3 04:46:41 10° SSW 04:52:19 81° ESE 04:57:57 10° NNE
Cosmos 1666 2.8 04:48:45 10° NNW 04:52:24 50° W 04:56:02 10° S
Meteor 1-19 Rocket 4.2 04:52:46 10° S 04:58:10 86° E 05:03:36 10° N
H-2A R/B 3.7 04:55:36 10° NNE 04:59:08 49° E 05:02:42 10° S
Cosmos 2333 Rocket 2.2 04:53:48 10° SSW 04:59:31 74° WNW 05:05:16 10° N
Ariane 44LP R/B 4.0 04:44:18 14° W 05:00:34 64° S 05:04:16 10° ESE
SAR-Lupe-4 3.5 04:57:21 10° S 05:00:51 59° WSW 05:04:23 10° NNW
Atlas Centaur 2 4.3 04:59:11 10° S 05:01:41 14° SE 05:04:27 10° ESE
GEOS 3 Rocket 4.2 04:56:49 10° N 05:01:42 38° WNW 05:06:30 10° SW
USA 281 3.2 04:55:35 10° NNE 05:02:06 74° WNW 05:08:39 10° SSW
ARIANE 44LP R/B 3.5 04:59:57 10° WSW 05:02:10 30° S 05:07:30 10° ESE
H-2A R/B 2.8 04:58:46 10° NNE 05:03:12 80° ESE 05:07:42 10° S
Cosmos 1898 Rocket 3.8 05:01:21 10° N 05:06:37 75° ENE 05:11:55 10° SSE
ARGOS Delta rocket 3.8 05:01:58 10° N 05:06:38 83° W 05:11:36 10° SSW
Okean 1 3.7 05:02:54 10° SSW 05:06:43 41° W 05:10:31 10° NNW
IUS-13 SRM-1 3.7 05:06:14 10° NW 05:08:58 47° NE 05:18:03 10° ESE
CZ-4B R/B 3.8 05:06:49 10° NNW 05:09:36 22° WNW 05:12:25 10° SW
Cosmos 2322 4.2 05:04:53 10° SW 05:10:09 39° WNW 05:15:23 10° N
Cosmos 2173 Rocket 4.1 05:03:56 10° N 05:10:15 67° W 05:16:33 10° S
Okean O Rocket 3.8 05:06:50 10° NE 05:10:41 31° E 05:14:33 10° SSE
SKYMED 2 4.1 05:09:24 10° SSE 05:13:41 65° ENE 05:17:58 10° N
CZ-4B DEB 4.3 05:08:37 10° NNE 05:14:10 88° ESE 05:19:42 10° SSW
Okean 1-7 3.0 05:11:41 10° S 05:15:58 68° W 05:20:11 10° N
CZ-3 R/B 3.2 05:03:47 10° SW 05:21:24 46° SSE 05:26:49 10° E
ARIANE 5 R/B 4.2 05:03:39 10° W 05:52:37 83° S 05:58:27 10° E
